AAL4786 KAUS-EGPH

Flight info

Callsign AAL4786
Flight time N/A
Altitude 37000
Route ILEXY4 ZENZI DCT LFK DCT ELD J29 MEM DCT KM36M DCT KI48Q DCT KC60U DCT PSB J49 HNK DCT TOPPS N435B ELSIR/M085F390 NATQ SOVED/N0489F390 DCT MIMKU DCT DONIB DCT MAC/N0475F250 N562 TRN DCT TLA
Aircraft B789/H-SDE1E2E3FGHIJ2J3J4J5M1RWXY/LB1D1

Departure

Time N/A
Airport Austin Bergstrom International Airport (KAUS)

Arrival

Time 2026-04-26 04:01
Airport Edinburgh Airport (EGPH)
Time Latitude Longitude Altitude Speed Heading
2026-04-25 21:27 37.34671 -85.36019 36886 ft 548 kts 57°
2026-04-25 21:27 37.36670 -85.31939 36882 ft 548 kts 57°
2026-04-25 21:28 37.40664 -85.23775 36952 ft 548 kts 57°
2026-04-25 21:28 37.44641 -85.15621 36940 ft 546 kts 57°
2026-04-25 21:29 37.48605 -85.07479 36922 ft 546 kts 57°
2026-04-25 21:29 37.52542 -84.99369 36908 ft 547 kts 57°
2026-04-25 21:30 37.56511 -84.91175 36922 ft 549 kts 57°
2026-04-25 21:30 37.59819 -84.84327 36933 ft 550 kts 57°
2026-04-25 21:31 37.64454 -84.74711 36931 ft 546 kts 57°
2026-04-25 21:31 37.68391 -84.66520 36904 ft 545 kts 58°
2026-04-25 21:32 37.72325 -84.58316 36911 ft 547 kts 58°
2026-04-25 21:32 37.76266 -84.50075 36902 ft 549 kts 58°
2026-04-25 21:33 37.80188 -84.41854 36901 ft 549 kts 58°
2026-04-25 21:33 37.84122 -84.33585 36915 ft 547 kts 58°
2026-04-25 21:34 37.88031 -84.25350 36903 ft 545 kts 58°
2026-04-25 21:34 37.91942 -84.17091 36894 ft 548 kts 58°
2026-04-25 21:35 37.95858 -84.08798 36894 ft 549 kts 59°
2026-04-25 21:35 37.99785 -84.00468 36935 ft 549 kts 57°
2026-04-25 21:36 38.04035 -83.92429 36955 ft 549 kts 56°
2026-04-25 21:36 38.08281 -83.84371 36922 ft 550 kts 56°
2026-04-25 21:37 38.11116 -83.79037 36920 ft 550 kts 56°
2026-04-25 21:37 38.16782 -83.68273 36920 ft 551 kts 56°
2026-04-25 21:38 38.21046 -83.60177 36922 ft 551 kts 56°
2026-04-25 21:38 38.25300 -83.52060 36909 ft 550 kts 56°
2026-04-25 21:39 38.29518 -83.44002 36919 ft 552 kts 56°
2026-04-25 21:39 38.33777 -83.35840 36897 ft 554 kts 57°
2026-04-25 21:40 38.38050 -83.27633 36904 ft 556 kts 57°
2026-04-25 21:40 38.42321 -83.19409 36910 ft 556 kts 57°
2026-04-25 21:41 38.46592 -83.11164 36912 ft 557 kts 57°
2026-04-25 21:41 38.50862 -83.02899 36916 ft 558 kts 57°
2026-04-25 21:42 38.55130 -82.94619 36921 ft 558 kts 57°
2026-04-25 21:42 38.59399 -82.86314 36923 ft 559 kts 57°
2026-04-25 21:43 38.63633 -82.78055 36908 ft 559 kts 57°
2026-04-25 21:43 38.67894 -82.69724 36908 ft 561 kts 58°
2026-04-25 21:44 38.72170 -82.61342 36910 ft 563 kts 58°
2026-04-25 21:45 38.78589 -82.48716 36909 ft 563 kts 58°
2026-04-25 21:45 38.82855 -82.40299 36906 ft 562 kts 58°
2026-04-25 21:46 38.87122 -82.31857 36914 ft 564 kts 58°
2026-04-25 21:46 38.91403 -82.23366 36900 ft 567 kts 58°
2026-04-25 21:47 38.95688 -82.14843 36903 ft 569 kts 58°
2026-04-25 21:47 38.99955 -82.06334 36906 ft 570 kts 58°
2026-04-25 21:48 39.04243 -81.97760 36900 ft 569 kts 58°
2026-04-25 21:48 39.08520 -81.89184 36883 ft 570 kts 58°
2026-04-25 21:49 39.12071 -81.82049 36885 ft 568 kts 58°
2026-04-25 21:49 39.16322 -81.73484 36875 ft 567 kts 58°
2026-04-25 21:50 39.20567 -81.64908 36860 ft 567 kts 58°
2026-04-25 21:50 39.24811 -81.56313 36889 ft 569 kts 58°
2026-04-25 21:51 39.29060 -81.47682 36902 ft 571 kts 58°
2026-04-25 21:51 39.33325 -81.38997 36912 ft 573 kts 58°
2026-04-25 21:52 39.37558 -81.30351 36884 ft 573 kts 58°
2026-04-25 21:52 39.41819 -81.21625 36875 ft 573 kts 58°
2026-04-25 21:53 39.46065 -81.12908 36876 ft 573 kts 58°
2026-04-25 21:53 39.50310 -81.04164 36879 ft 573 kts 58°
2026-04-25 21:54 39.54552 -80.95410 36887 ft 573 kts 58°
2026-04-25 21:54 39.58778 -80.86658 36880 ft 572 kts 58°
2026-04-25 21:55 39.62990 -80.77913 36875 ft 572 kts 58°
2026-04-25 21:55 39.67171 -80.69208 36886 ft 572 kts 58°
2026-04-25 21:56 39.71380 -80.60420 36882 ft 574 kts 58°
2026-04-25 21:56 39.75594 -80.51594 36885 ft 574 kts 58°
2026-04-25 21:57 39.79803 -80.42762 36877 ft 573 kts 58°
2026-04-25 21:57 39.83986 -80.33953 36883 ft 572 kts 58°
2026-04-25 21:58 39.88168 -80.25124 36877 ft 573 kts 58°
2026-04-25 21:58 39.92341 -80.16288 36867 ft 573 kts 58°
2026-04-25 21:59 39.96488 -80.07483 36890 ft 573 kts 58°
2026-04-25 21:59 40.00655 -79.98609 36893 ft 574 kts 58°
2026-04-25 22:00 40.06926 -79.85288 36894 ft 575 kts 58°
2026-04-25 22:00 40.11095 -79.76376 36902 ft 575 kts 58°
2026-04-25 22:01 40.15269 -79.67451 36918 ft 576 kts 58°
2026-04-25 22:01 40.18743 -79.59992 36934 ft 576 kts 58°
2026-04-25 22:02 40.23583 -79.49577 36946 ft 576 kts 58°
2026-04-25 22:02 40.27731 -79.40618 36936 ft 575 kts 58°
2026-04-25 22:03 40.31873 -79.31653 36941 ft 575 kts 58°
2026-04-25 22:03 40.36012 -79.22664 36923 ft 575 kts 58°
2026-04-25 22:04 40.40139 -79.13677 36923 ft 575 kts 58°
2026-04-25 22:04 40.44233 -79.04733 36906 ft 574 kts 58°
2026-04-25 22:05 40.48336 -78.95747 36910 ft 572 kts 58°
2026-04-25 22:05 40.52423 -78.86768 36904 ft 572 kts 58°
2026-04-25 22:06 40.56507 -78.77769 36892 ft 572 kts 58°
2026-04-25 22:06 40.60586 -78.68756 36905 ft 572 kts 58°
2026-04-25 22:07 40.63958 -78.61283 36896 ft 571 kts 57°
2026-04-25 22:07 40.68659 -78.50837 36893 ft 570 kts 58°
2026-04-25 22:08 40.72697 -78.41833 36896 ft 571 kts 58°
2026-04-25 22:08 40.76732 -78.32813 36929 ft 570 kts 58°
2026-04-25 22:09 40.80754 -78.23792 36922 ft 570 kts 58°
2026-04-25 22:09 40.84770 -78.14760 36930 ft 570 kts 58°
2026-04-25 22:10 40.88772 -78.05731 36933 ft 569 kts 58°
2026-04-25 22:10 40.92773 -77.96685 36939 ft 570 kts 58°
2026-04-25 22:11 40.96821 -77.87671 36949 ft 569 kts 57°
2026-04-25 22:11 41.00812 -77.78689 36951 ft 569 kts 57°
2026-04-25 22:12 41.04835 -77.69641 36952 ft 570 kts 57°
2026-04-25 22:12 41.08173 -77.62106 36962 ft 570 kts 58°
2026-04-25 22:13 41.12851 -77.51510 36962 ft 568 kts 57°
2026-04-25 22:13 41.16834 -77.42465 36959 ft 567 kts 57°
2026-04-25 22:14 41.20778 -77.33472 37556 ft 554 kts 57°
2026-04-25 22:14 41.22694 -77.29096 38217 ft 542 kts 57°
2026-04-25 22:14 41.24565 -77.24819 38797 ft 530 kts 57°
2026-04-25 22:15 41.26405 -77.20608 38961 ft 527 kts 57°
2026-04-25 22:15 41.28250 -77.16384 38963 ft 528 kts 57°
2026-04-25 22:16 41.33749 -77.03734 38966 ft 530 kts 57°
2026-04-25 22:16 41.37435 -76.95231 38970 ft 531 kts 57°
2026-04-25 22:17 41.41125 -76.86690 38974 ft 532 kts 57°
2026-04-25 22:17 41.44813 -76.78130 38993 ft 533 kts 57°
2026-04-25 22:18 41.48504 -76.69541 38995 ft 534 kts 57°
2026-04-25 22:18 41.52193 -76.60929 39004 ft 535 kts 57°
2026-04-25 22:19 41.55879 -76.52301 39008 ft 535 kts 57°
2026-04-25 22:19 41.59542 -76.43697 39005 ft 536 kts 57°
2026-04-25 22:20 41.63225 -76.35024 39014 ft 537 kts 57°
2026-04-25 22:20 41.66911 -76.26318 39015 ft 538 kts 58°
2026-04-25 22:21 41.70599 -76.17582 39030 ft 539 kts 58°
2026-04-25 22:21 41.74283 -76.08829 39029 ft 540 kts 57°
2026-04-25 22:22 41.77965 -76.00054 39024 ft 541 kts 58°
2026-04-25 22:22 41.81624 -75.91308 39038 ft 542 kts 58°
2026-04-25 22:23 41.85306 -75.82481 39035 ft 543 kts 58°
2026-04-25 22:23 41.88986 -75.73632 39045 ft 543 kts 58°
2026-04-25 22:24 41.92664 -75.64763 39047 ft 544 kts 58°
2026-04-25 22:24 41.96337 -75.55877 39056 ft 545 kts 58°
2026-04-25 22:25 42.00014 -75.46960 39063 ft 545 kts 58°
2026-04-25 22:25 42.03685 -75.38027 39063 ft 544 kts 58°
2026-04-25 22:26 42.07464 -75.29241 39094 ft 540 kts 53°
2026-04-25 22:26 42.11608 -75.20823 39063 ft 537 kts 53°
2026-04-25 22:27 42.15710 -75.12404 39063 ft 538 kts 53°
2026-04-25 22:27 42.19792 -75.04031 39061 ft 539 kts 53°
2026-04-25 22:28 42.23902 -74.95567 39067 ft 539 kts 54°
2026-04-25 22:28 42.28009 -74.87086 39064 ft 540 kts 54°
2026-04-25 22:29 42.32110 -74.78593 39066 ft 540 kts 54°
2026-04-25 22:29 42.36213 -74.70073 39070 ft 541 kts 54°
2026-04-25 22:30 42.42366 -74.57250 39072 ft 542 kts 54°
2026-04-25 22:30 42.45773 -74.50125 39075 ft 543 kts 54°
2026-04-25 22:31 42.50562 -74.40083 39078 ft 543 kts 54°
2026-04-25 22:31 42.54655 -74.31472 39087 ft 543 kts 54°
2026-04-25 22:32 42.58744 -74.22847 39079 ft 543 kts 54°
2026-04-25 22:32 42.62826 -74.14209 39085 ft 543 kts 54°
2026-04-25 22:33 42.66881 -74.05605 39086 ft 544 kts 55°
2026-04-25 22:33 42.70948 -73.96950 39073 ft 543 kts 54°
2026-04-25 22:34 42.75012 -73.88277 39070 ft 543 kts 54°
2026-04-25 22:34 42.79064 -73.79603 39068 ft 542 kts 54°
2026-04-25 22:35 42.83104 -73.70929 39072 ft 542 kts 55°
2026-04-25 22:35 42.87139 -73.62240 39080 ft 543 kts 54°
2026-04-25 22:36 42.90489 -73.55009 39060 ft 542 kts 54°
2026-04-25 22:36 42.94517 -73.46289 39052 ft 542 kts 54°
2026-04-25 22:37 42.99185 -73.36152 39055 ft 543 kts 54°
2026-04-25 22:37 43.02549 -73.28825 39053 ft 543 kts 54°
2026-04-25 22:38 43.06558 -73.20068 39055 ft 543 kts 54°
2026-04-25 22:38 43.10561 -73.11302 39064 ft 543 kts 54°
2026-04-25 22:39 43.14534 -73.02572 39067 ft 544 kts 54°
2026-04-25 22:39 43.18530 -72.93763 39074 ft 544 kts 54°
2026-04-25 22:40 43.22516 -72.84953 39071 ft 544 kts 54°
2026-04-25 22:40 43.26493 -72.76136 39075 ft 543 kts 54°
2026-04-25 22:41 43.30468 -72.67300 39070 ft 544 kts 54°
2026-04-25 22:41 43.34431 -72.58458 39067 ft 544 kts 54°
2026-04-25 22:42 43.38381 -72.49622 39071 ft 542 kts 54°
2026-04-25 22:42 43.42295 -72.40841 39073 ft 541 kts 54°
2026-04-25 22:43 43.46222 -72.32000 39067 ft 541 kts 54°
2026-04-25 22:43 43.50141 -72.23157 39074 ft 541 kts 54°
2026-04-25 22:44 43.54040 -72.14324 39067 ft 537 kts 54°
2026-04-25 22:44 43.57917 -72.05521 39079 ft 537 kts 54°
2026-04-25 22:45 43.61791 -71.96693 39065 ft 538 kts 54°
2026-04-25 22:45 43.65635 -71.87911 39073 ft 538 kts 54°
2026-04-25 22:46 43.69494 -71.79065 39082 ft 537 kts 54°
2026-04-25 22:46 43.73345 -71.70212 39084 ft 537 kts 54°
2026-04-25 22:47 43.77180 -71.61367 39082 ft 535 kts 54°
2026-04-25 22:47 43.81000 -71.52532 39078 ft 535 kts 54°
2026-04-25 22:48 43.84811 -71.43689 39076 ft 535 kts 54°
2026-04-25 22:48 43.88615 -71.34836 39084 ft 534 kts 55°
2026-04-25 22:49 43.92403 -71.25992 39082 ft 533 kts 54°
2026-04-25 22:49 43.96155 -71.17205 39061 ft 533 kts 54°
2026-04-25 22:50 43.99927 -71.08347 39068 ft 533 kts 55°
2026-04-25 22:50 44.03692 -70.99474 39056 ft 533 kts 55°
2026-04-25 22:51 44.07457 -70.90576 39056 ft 534 kts 55°
2026-04-25 22:51 44.11214 -70.81669 39058 ft 534 kts 55°
2026-04-25 22:52 44.14969 -70.72739 39065 ft 534 kts 55°
2026-04-25 22:52 44.18085 -70.65306 39069 ft 534 kts 55°
2026-04-25 22:53 44.22436 -70.54896 39077 ft 535 kts 55°
2026-04-25 22:53 44.26174 -70.45923 39074 ft 535 kts 55°
2026-04-25 22:54 44.29909 -70.36926 39067 ft 535 kts 55°
2026-04-25 22:54 44.33636 -70.27924 39068 ft 535 kts 55°
2026-04-25 22:55 44.37354 -70.18912 39063 ft 535 kts 56°
2026-04-25 22:55 44.41045 -70.09938 39077 ft 536 kts 55°
2026-04-25 22:56 44.44797 -70.00790 38782 ft 541 kts 55°
2026-04-25 22:56 44.46638 -69.96286 38540 ft 540 kts 55°
2026-04-25 22:56 44.48496 -69.91729 38237 ft 537 kts 54°
2026-04-25 22:57 44.50343 -69.87199 37949 ft 535 kts 54°
2026-04-25 22:57 44.52186 -69.82676 37687 ft 534 kts 54°
2026-04-25 22:57 44.54025 -69.78155 37418 ft 534 kts 54°
2026-04-25 22:57 44.55863 -69.73622 37199 ft 535 kts 54°
2026-04-25 22:58 44.57702 -69.69081 37024 ft 533 kts 54°
2026-04-25 22:58 44.59525 -69.64570 37045 ft 532 kts 54°
2026-04-25 22:58 44.63184 -69.55511 37049 ft 535 kts 54°
2026-04-25 22:59 44.66851 -69.46385 37047 ft 537 kts 54°
2026-04-25 22:59 44.70532 -69.37207 37058 ft 539 kts 54°
2026-04-25 23:00 44.74191 -69.28041 37059 ft 537 kts 54°
2026-04-25 23:00 44.77819 -69.18939 37062 ft 536 kts 54°
2026-04-25 23:01 44.81454 -69.09777 37069 ft 536 kts 54°
2026-04-25 23:01 44.85082 -69.00611 37087 ft 536 kts 54°
2026-04-25 23:02 44.88702 -68.91427 37058 ft 534 kts 54°
2026-04-25 23:02 44.92303 -68.82269 37057 ft 534 kts 54°
2026-04-25 23:03 44.95898 -68.73091 37076 ft 534 kts 54°
2026-04-25 23:03 44.99481 -68.63914 37059 ft 532 kts 54°
2026-04-25 23:04 45.02445 -68.56300 37054 ft 532 kts 54°
2026-04-25 23:04 45.06608 -68.45572 37049 ft 533 kts 54°
2026-04-25 23:05 45.10165 -68.36370 37061 ft 532 kts 54°
2026-04-25 23:05 45.13693 -68.27212 37046 ft 528 kts 54°
2026-04-25 23:06 45.17187 -68.18122 37043 ft 529 kts 54°
2026-04-25 23:06 45.20699 -68.08942 37042 ft 529 kts 54°
2026-04-25 23:07 45.24206 -67.99755 37041 ft 530 kts 55°
2026-04-25 23:07 45.27710 -67.90535 37045 ft 529 kts 55°
2026-04-25 23:08 45.31200 -67.81329 37060 ft 529 kts 55°
2026-04-25 23:08 45.34641 -67.72104 37049 ft 528 kts 58°
2026-04-25 23:09 45.37962 -67.62853 37047 ft 528 kts 57°
2026-04-25 23:09 45.41285 -67.53530 37042 ft 528 kts 57°
2026-04-25 23:10 45.44532 -67.44374 37032 ft 526 kts 57°
2026-04-25 23:10 45.47861 -67.34992 37029 ft 527 kts 57°
2026-04-25 23:11 45.51152 -67.25644 37025 ft 528 kts 57°
2026-04-25 23:11 45.54448 -67.16282 37030 ft 528 kts 58°
2026-04-25 23:12 45.57729 -67.06908 37023 ft 528 kts 58°
2026-04-25 23:12 45.61005 -66.97530 37027 ft 527 kts 58°
2026-04-25 23:13 45.64268 -66.88147 37020 ft 527 kts 58°
2026-04-25 23:13 45.67497 -66.78832 37022 ft 526 kts 58°
2026-04-25 23:14 45.70737 -66.69455 37020 ft 526 kts 58°
2026-04-25 23:14 45.73973 -66.60054 37023 ft 527 kts 58°
2026-04-25 23:15 45.77202 -66.50638 37010 ft 526 kts 59°
2026-04-25 23:15 45.80411 -66.41250 37019 ft 524 kts 59°
2026-04-25 23:16 45.83609 -66.31861 37018 ft 524 kts 59°
2026-04-25 23:16 45.86778 -66.22521 37018 ft 524 kts 59°
2026-04-25 23:17 45.89959 -66.13118 37034 ft 524 kts 59°
2026-04-25 23:17 45.93127 -66.03713 37032 ft 522 kts 59°
2026-04-25 23:18 45.96284 -65.94313 37030 ft 521 kts 59°
2026-04-25 23:18 45.99420 -65.84936 37026 ft 520 kts 59°
2026-04-25 23:19 46.02535 -65.75597 37044 ft 521 kts 60°
2026-04-25 23:19 46.05675 -65.66139 37034 ft 519 kts 60°
2026-04-25 23:20 46.08760 -65.56822 37033 ft 518 kts 60°
2026-04-25 23:20 46.11855 -65.47436 37031 ft 518 kts 60°
2026-04-25 23:21 46.14944 -65.38035 37061 ft 519 kts 60°
2026-04-25 23:21 46.18031 -65.28608 37047 ft 519 kts 60°
2026-04-25 23:22 46.21110 -65.19170 37048 ft 519 kts 60°
2026-04-25 23:23 46.25718 -65.04978 37051 ft 520 kts 60°
2026-04-25 23:23 46.28764 -64.95558 37049 ft 520 kts 61°
2026-04-25 23:24 46.31807 -64.86106 37050 ft 518 kts 61°
2026-04-25 23:24 46.34841 -64.76656 37047 ft 517 kts 61°
2026-04-25 23:25 46.37862 -64.67205 37042 ft 516 kts 61°
2026-04-25 23:25 46.40874 -64.57750 37060 ft 517 kts 61°
2026-04-25 23:26 46.43877 -64.48286 37050 ft 516 kts 62°
2026-04-25 23:26 46.46364 -64.40424 37049 ft 515 kts 62°
2026-04-25 23:27 46.49343 -64.30974 37041 ft 514 kts 62°
2026-04-25 23:27 46.52315 -64.21511 37037 ft 515 kts 62°
2026-04-25 23:28 46.55280 -64.12036 37059 ft 515 kts 62°
2026-04-25 23:28 46.58222 -64.02597 37038 ft 515 kts 62°
2026-04-25 23:29 46.61165 -63.93121 37036 ft 514 kts 62°
2026-04-25 23:29 46.64098 -63.83638 37025 ft 513 kts 62°
2026-04-25 23:30 46.67018 -63.74165 37034 ft 513 kts 62°
2026-04-25 23:30 46.69933 -63.64674 37030 ft 513 kts 62°
2026-04-25 23:31 46.72844 -63.55158 37029 ft 514 kts 62°
2026-04-25 23:31 46.75754 -63.45611 37013 ft 516 kts 62°
2026-04-25 23:32 46.78662 -63.36033 37029 ft 516 kts 63°
2026-04-25 23:32 46.81543 -63.26506 37008 ft 516 kts 63°
2026-04-25 23:33 46.84433 -63.16912 37008 ft 515 kts 63°
2026-04-25 23:33 46.87310 -63.07327 37002 ft 514 kts 63°
2026-04-25 23:34 46.90177 -62.97738 36986 ft 514 kts 63°
2026-04-25 23:34 46.93023 -62.88181 36991 ft 511 kts 63°
2026-04-25 23:35 46.95835 -62.78705 36982 ft 511 kts 63°
2026-04-25 23:35 46.98660 -62.69144 36982 ft 512 kts 63°
2026-04-25 23:36 47.01486 -62.59546 36983 ft 513 kts 63°
2026-04-25 23:36 47.04306 -62.49929 36969 ft 514 kts 63°
2026-04-25 23:37 47.07111 -62.40324 36970 ft 511 kts 63°
2026-04-25 23:37 47.09899 -62.30743 36960 ft 510 kts 63°
2026-04-25 23:38 47.12674 -62.21167 36947 ft 509 kts 63°
2026-04-25 23:38 47.15443 -62.11577 36959 ft 510 kts 63°
2026-04-25 23:39 47.18206 -62.01968 36948 ft 511 kts 63°
2026-04-25 23:39 47.20969 -61.92320 36947 ft 512 kts 63°
2026-04-25 23:40 47.23710 -61.82712 36949 ft 513 kts 63°
2026-04-25 23:40 47.26463 -61.73022 36950 ft 513 kts 64°
2026-04-25 23:41 47.29206 -61.63332 36947 ft 511 kts 64°
2026-04-25 23:41 47.31924 -61.53687 36938 ft 509 kts 64°
2026-04-25 23:42 47.34631 -61.44050 36933 ft 509 kts 64°
2026-04-25 23:42 47.37336 -61.34374 36926 ft 511 kts 64°
2026-04-25 23:43 47.40044 -61.24648 36919 ft 512 kts 64°
2026-04-25 23:43 47.42741 -61.14924 36914 ft 512 kts 64°
2026-04-25 23:44 47.45424 -61.05211 36912 ft 513 kts 64°
2026-04-25 23:44 47.48114 -60.95433 36914 ft 513 kts 64°
2026-04-25 23:45 47.50792 -60.85661 36913 ft 513 kts 64°
2026-04-25 23:45 47.53460 -60.75881 36889 ft 512 kts 65°
2026-04-25 23:46 47.56096 -60.66180 36875 ft 511 kts 65°
2026-04-25 23:46 47.58737 -60.56420 36870 ft 510 kts 65°
2026-04-25 23:47 47.61368 -60.46656 36866 ft 510 kts 65°
2026-04-25 23:47 47.63994 -60.36871 36872 ft 511 kts 65°
2026-04-25 23:48 47.66612 -60.27073 36867 ft 511 kts 65°
2026-04-25 23:48 47.69222 -60.17269 36866 ft 511 kts 65°
2026-04-25 23:49 47.71825 -60.07446 36844 ft 512 kts 65°
2026-04-25 23:49 47.74425 -59.97594 36853 ft 512 kts 65°
2026-04-25 23:50 47.76997 -59.87805 36843 ft 510 kts 65°
2026-04-25 23:50 47.79569 -59.77976 36830 ft 510 kts 66°
2026-04-25 23:51 47.82129 -59.68148 36824 ft 509 kts 66°
2026-04-25 23:51 47.84682 -59.58310 36815 ft 509 kts 66°
2026-04-25 23:52 47.87224 -59.48469 36812 ft 508 kts 66°
2026-04-25 23:52 47.89748 -59.38654 36815 ft 507 kts 65°
2026-04-25 23:53 47.92255 -59.28866 36806 ft 504 kts 65°
2026-04-25 23:53 47.94746 -59.19098 36790 ft 503 kts 65°
2026-04-25 23:54 47.97227 -59.09331 36788 ft 503 kts 65°
2026-04-25 23:54 47.99691 -58.99590 36782 ft 506 kts 66°
2026-04-25 23:55 48.02167 -58.89748 36773 ft 507 kts 66°
2026-04-25 23:55 48.04640 -58.79882 36767 ft 508 kts 66°
2026-04-25 23:56 48.07113 -58.69983 36771 ft 508 kts 66°
2026-04-25 23:56 48.09577 -58.60064 36757 ft 510 kts 67°
2026-04-25 23:57 48.12037 -58.50108 36758 ft 510 kts 67°
2026-04-25 23:57 48.14495 -58.40138 36756 ft 511 kts 68°
2026-04-25 23:58 48.16942 -58.30151 36757 ft 511 kts 68°
2026-04-25 23:58 48.19378 -58.20168 36759 ft 510 kts 67°
2026-04-25 23:59 48.21810 -58.10161 36739 ft 511 kts 68°
2026-04-25 23:59 48.24233 -58.00143 36739 ft 511 kts 68°
2026-04-26 00:00 48.26635 -57.90168 36739 ft 511 kts 68°
2026-04-26 00:00 48.29040 -57.80130 36723 ft 511 kts 68°
2026-04-26 00:01 48.31436 -57.70092 36727 ft 510 kts 68°
2026-04-26 00:01 48.33820 -57.60052 36727 ft 510 kts 68°
2026-04-26 00:02 48.36196 -57.50003 36715 ft 510 kts 68°
2026-04-26 00:02 48.38561 -57.39949 36712 ft 510 kts 68°
2026-04-26 00:03 48.40904 -57.29948 36711 ft 510 kts 68°
2026-04-26 00:03 48.43249 -57.19888 36688 ft 508 kts 68°
2026-04-26 00:04 48.45582 -57.09836 36674 ft 508 kts 68°
2026-04-26 00:04 48.47904 -56.99782 36672 ft 508 kts 69°
2026-04-26 00:05 48.50222 -56.89700 36642 ft 509 kts 69°
2026-04-26 00:05 48.52534 -56.79595 36644 ft 509 kts 69°
2026-04-26 00:06 48.54819 -56.69562 36645 ft 509 kts 69°
2026-04-26 00:06 48.57114 -56.59432 36636 ft 509 kts 69°
2026-04-26 00:07 48.59398 -56.49304 36644 ft 509 kts 69°
2026-04-26 00:07 48.61671 -56.39181 36637 ft 508 kts 69°
2026-04-26 00:08 48.63933 -56.29056 36624 ft 508 kts 69°
2026-04-26 00:08 48.66185 -56.18929 36624 ft 507 kts 69°
2026-04-26 00:09 48.68425 -56.08806 36624 ft 507 kts 69°
2026-04-26 00:09 48.70655 -55.98676 36610 ft 507 kts 69°
2026-04-26 00:10 48.72879 -55.88527 36618 ft 508 kts 69°
2026-04-26 00:10 48.75077 -55.78444 36614 ft 507 kts 69°
2026-04-26 00:11 48.77284 -55.68274 36591 ft 508 kts 69°
2026-04-26 00:11 48.79480 -55.58101 36599 ft 508 kts 69°
2026-04-26 00:12 48.81670 -55.47909 36595 ft 508 kts 69°
2026-04-26 00:12 48.83850 -55.37711 36584 ft 507 kts 69°
2026-04-26 00:13 48.86016 -55.27529 36584 ft 506 kts 70°
2026-04-26 00:13 48.88170 -55.17353 36576 ft 506 kts 70°
2026-04-26 00:14 48.90314 -55.07173 36560 ft 506 kts 70°
2026-04-26 00:14 48.92451 -54.96966 36553 ft 507 kts 70°
2026-04-26 00:15 48.94573 -54.86792 36557 ft 509 kts 70°
2026-04-26 00:15 48.96703 -54.76518 36544 ft 509 kts 70°
2026-04-26 00:16 48.98827 -54.66227 36542 ft 509 kts 70°
2026-04-26 00:16 49.00943 -54.55917 36544 ft 509 kts 70°
2026-04-26 00:17 49.02690 -54.47364 36546 ft 509 kts 70°
2026-04-26 00:17 49.05126 -54.35382 36525 ft 509 kts 71°
2026-04-26 00:18 49.07209 -54.25072 36526 ft 509 kts 71°
2026-04-26 00:18 49.08951 -54.16411 36513 ft 511 kts 71°
2026-04-26 00:19 49.11026 -54.06043 36510 ft 511 kts 71°
2026-04-26 00:19 49.13095 -53.95647 36509 ft 511 kts 71°
2026-04-26 00:20 49.15148 -53.85280 36491 ft 509 kts 71°
2026-04-26 00:20 49.17187 -53.74930 36488 ft 509 kts 71°
2026-04-26 00:21 49.19215 -53.64575 36484 ft 509 kts 71°
2026-04-26 00:21 49.21237 -53.54199 36473 ft 509 kts 71°
2026-04-26 00:22 49.23237 -53.43872 36477 ft 509 kts 71°
2026-04-26 00:22 49.25241 -53.33484 36476 ft 508 kts 71°
2026-04-26 00:23 49.27231 -53.23099 36457 ft 508 kts 71°
2026-04-26 00:23 49.29214 -53.12699 36459 ft 508 kts 71°
2026-04-26 00:24 49.31183 -53.02309 36452 ft 508 kts 71°
2026-04-26 00:24 49.33134 -52.91965 36451 ft 508 kts 71°
2026-04-26 00:25 49.35090 -52.81531 36443 ft 508 kts 72°
2026-04-26 00:25 49.37036 -52.71097 36438 ft 508 kts 72°
2026-04-26 00:26 49.38971 -52.60658 36420 ft 510 kts 72°
2026-04-26 00:26 49.40906 -52.50164 36426 ft 511 kts 72°
2026-04-26 00:27 49.42833 -52.39650 36425 ft 511 kts 72°
2026-04-26 00:27 49.44750 -52.29134 36414 ft 511 kts 72°
2026-04-26 00:28 49.46645 -52.18672 36409 ft 511 kts 72°
2026-04-26 00:28 49.48544 -52.08134 36409 ft 511 kts 72°
2026-04-26 00:29 49.50601 -51.97703 36434 ft 507 kts 65°
2026-04-26 00:29 49.53233 -51.87599 36416 ft 508 kts 66°
2026-04-26 00:30 49.55861 -51.77460 36399 ft 511 kts 66°
2026-04-26 00:30 49.58494 -51.67267 36395 ft 512 kts 67°
2026-04-26 00:31 49.61120 -51.57039 36391 ft 513 kts 67°
2026-04-26 00:31 49.63741 -51.46801 36392 ft 512 kts 67°
2026-04-26 00:32 49.66324 -51.36651 36391 ft 511 kts 67°
2026-04-26 00:32 49.70203 -51.21333 36372 ft 510 kts 67°
2026-04-26 00:33 49.72772 -51.11133 36377 ft 510 kts 67°
2026-04-26 00:33 49.75339 -51.00888 36378 ft 511 kts 68°
2026-04-26 00:34 49.77900 -50.90625 36386 ft 512 kts 68°
2026-04-26 00:34 49.80459 -50.80319 36385 ft 513 kts 68°
2026-04-26 00:35 49.83017 -50.69970 36395 ft 515 kts 68°
2026-04-26 00:35 49.85577 -50.59566 36389 ft 516 kts 68°
2026-04-26 00:36 49.88104 -50.49245 36383 ft 515 kts 68°
2026-04-26 00:36 49.90637 -50.38853 36382 ft 514 kts 68°
2026-04-26 00:37 49.93156 -50.28470 36378 ft 513 kts 68°
2026-04-26 00:37 49.95659 -50.18105 36377 ft 512 kts 69°
2026-04-26 00:38 49.98150 -50.07738 36371 ft 512 kts 69°
2026-04-26 00:38 50.00687 -49.97375 36378 ft 512 kts 67°
2026-04-26 00:39 50.03266 -49.87025 36390 ft 514 kts 68°
2026-04-26 00:39 50.05877 -49.76653 36393 ft 516 kts 68°
2026-04-26 00:40 50.08477 -49.66243 36385 ft 516 kts 68°
2026-04-26 00:40 50.11062 -49.55827 36388 ft 515 kts 68°
2026-04-26 00:41 50.13625 -49.45487 36391 ft 514 kts 68°
2026-04-26 00:41 50.16184 -49.35079 36390 ft 514 kts 68°
2026-04-26 00:42 50.18737 -49.24670 36391 ft 512 kts 69°
2026-04-26 00:42 50.21273 -49.14269 36388 ft 512 kts 69°
2026-04-26 00:43 50.23802 -49.03853 36392 ft 512 kts 69°
2026-04-26 00:43 50.26303 -48.93500 36392 ft 513 kts 69°
2026-04-26 00:44 50.28814 -48.83060 36405 ft 513 kts 69°
2026-04-26 00:44 50.31319 -48.72595 36402 ft 514 kts 69°
2026-04-26 00:45 50.33816 -48.62110 36399 ft 514 kts 69°
2026-04-26 00:45 50.36308 -48.51598 36404 ft 514 kts 70°
2026-04-26 00:46 50.38784 -48.41102 36396 ft 514 kts 70°
2026-04-26 00:46 50.41257 -48.30563 36407 ft 515 kts 70°
2026-04-26 00:47 50.43724 -48.20003 36410 ft 516 kts 70°
2026-04-26 00:47 50.46182 -48.09427 36412 ft 516 kts 70°
2026-04-26 00:48 50.48615 -47.98908 36418 ft 516 kts 70°
2026-04-26 00:48 50.51054 -47.88309 36419 ft 516 kts 71°
2026-04-26 00:49 50.53484 -47.77703 36420 ft 516 kts 71°
2026-04-26 00:49 50.55907 -47.67068 36423 ft 516 kts 71°
2026-04-26 00:50 50.58319 -47.56430 36428 ft 516 kts 71°
2026-04-26 00:50 50.60719 -47.45789 36430 ft 516 kts 71°
2026-04-26 00:51 50.63108 -47.35144 36433 ft 516 kts 71°
2026-04-26 00:51 50.65477 -47.24533 36434 ft 516 kts 71°
2026-04-26 00:52 50.67848 -47.13863 36428 ft 516 kts 71°
2026-04-26 00:52 50.70211 -47.03172 36431 ft 515 kts 72°
2026-04-26 00:53 50.72559 -46.92493 36436 ft 515 kts 72°
2026-04-26 00:53 50.74897 -46.81807 36432 ft 515 kts 72°
2026-04-26 00:54 50.77224 -46.71112 36442 ft 515 kts 72°
2026-04-26 00:54 50.79543 -46.60403 36437 ft 515 kts 73°
2026-04-26 00:55 50.81838 -46.49743 36444 ft 516 kts 72°
2026-04-26 00:55 50.84143 -46.38989 36443 ft 516 kts 72°
2026-04-26 00:56 50.86439 -46.28214 36441 ft 517 kts 73°
2026-04-26 00:56 50.88724 -46.17432 36449 ft 517 kts 73°
2026-04-26 00:57 50.91005 -46.06619 36454 ft 517 kts 73°
2026-04-26 00:57 50.93276 -45.95785 36456 ft 518 kts 73°
2026-04-26 00:58 50.95539 -45.84939 36458 ft 518 kts 73°
2026-04-26 00:58 50.97793 -45.74076 36469 ft 518 kts 73°
2026-04-26 00:59 51.00018 -45.63290 36473 ft 518 kts 73°
2026-04-26 00:59 51.02250 -45.52417 36462 ft 518 kts 74°
2026-04-26 01:00 51.04478 -45.41500 36479 ft 520 kts 74°
2026-04-26 01:00 51.06703 -45.30534 36481 ft 522 kts 74°
2026-04-26 01:01 51.08924 -45.19534 36474 ft 522 kts 75°
2026-04-26 01:01 51.11129 -45.08544 36476 ft 521 kts 75°
2026-04-26 01:02 51.13324 -44.97545 36474 ft 520 kts 75°
2026-04-26 01:02 51.15505 -44.86557 36479 ft 520 kts 75°
2026-04-26 01:03 51.17672 -44.75577 36459 ft 519 kts 75°
2026-04-26 01:03 51.19810 -44.64675 36488 ft 519 kts 75°
2026-04-26 01:04 51.21957 -44.53670 36489 ft 520 kts 75°
2026-04-26 01:04 51.24100 -44.42626 36490 ft 521 kts 75°
2026-04-26 01:05 51.26235 -44.31554 36486 ft 523 kts 76°
2026-04-26 01:05 51.28011 -44.22297 36497 ft 524 kts 76°
2026-04-26 01:06 51.30139 -44.11137 36502 ft 525 kts 76°
2026-04-26 01:06 51.32257 -43.99974 36503 ft 524 kts 76°
2026-04-26 01:07 51.34362 -43.88807 36507 ft 524 kts 76°
2026-04-26 01:07 51.36455 -43.77642 36492 ft 523 kts 76°
2026-04-26 01:08 51.38533 -43.66488 36499 ft 522 kts 76°
2026-04-26 01:08 51.40583 -43.55417 36496 ft 522 kts 76°
2026-04-26 01:09 51.42633 -43.44277 36500 ft 521 kts 77°
2026-04-26 01:09 51.44675 -43.33118 36501 ft 520 kts 77°
2026-04-26 01:10 51.46699 -43.21985 36508 ft 521 kts 77°
2026-04-26 01:10 51.48721 -43.10793 36500 ft 523 kts 77°
2026-04-26 01:11 51.50742 -42.99545 36508 ft 526 kts 77°
2026-04-26 01:11 51.52762 -42.88231 36519 ft 527 kts 77°
2026-04-26 01:12 51.54771 -42.76907 36514 ft 527 kts 77°
2026-04-26 01:12 51.56753 -42.65662 36508 ft 526 kts 78°
2026-04-26 01:13 51.58735 -42.54345 36511 ft 525 kts 78°
2026-04-26 01:13 51.60705 -42.43028 36512 ft 524 kts 78°
2026-04-26 01:14 51.62659 -42.31728 36500 ft 523 kts 78°
2026-04-26 01:14 51.64599 -42.20434 36509 ft 523 kts 78°
2026-04-26 01:15 51.66515 -42.09215 36490 ft 523 kts 78°
2026-04-26 01:15 51.68437 -41.97883 36496 ft 526 kts 78°
2026-04-26 01:16 51.70356 -41.86492 36504 ft 528 kts 78°
2026-04-26 01:16 51.72270 -41.75062 36509 ft 528 kts 79°
2026-04-26 01:17 51.74173 -41.63614 36512 ft 528 kts 79°
2026-04-26 01:17 51.76063 -41.52176 36514 ft 527 kts 79°
2026-04-26 01:18 51.77942 -41.40726 36512 ft 527 kts 79°
2026-04-26 01:18 51.79796 -41.29348 36506 ft 526 kts 79°
2026-04-26 01:19 51.81648 -41.17908 36501 ft 526 kts 79°
2026-04-26 01:19 51.83486 -41.06476 36502 ft 525 kts 79°
2026-04-26 01:20 51.85312 -40.95039 36498 ft 524 kts 79°
2026-04-26 01:20 51.87123 -40.83612 36475 ft 525 kts 80°
2026-04-26 01:21 51.88929 -40.72144 36512 ft 526 kts 80°
2026-04-26 01:21 51.90730 -40.60629 36517 ft 527 kts 81°
2026-04-26 01:22 51.92508 -40.49177 36521 ft 528 kts 81°
2026-04-26 01:22 51.94287 -40.37639 36522 ft 528 kts 81°
2026-04-26 01:23 51.96053 -40.26109 36518 ft 527 kts 81°
2026-04-26 01:23 51.97806 -40.14563 36514 ft 527 kts 81°
2026-04-26 01:24 51.99551 -40.03005 36519 ft 527 kts 81°
2026-04-26 01:24 52.02075 -39.91749 36531 ft 533 kts 72°
2026-04-26 01:25 52.04881 -39.80651 36528 ft 534 kts 73°
2026-04-26 01:25 52.07677 -39.69440 36534 ft 536 kts 73°
2026-04-26 01:26 52.10490 -39.58154 36546 ft 539 kts 73°
2026-04-26 01:26 52.13288 -39.46847 36519 ft 539 kts 73°
2026-04-26 01:27 52.16078 -39.35525 36534 ft 538 kts 73°
2026-04-26 01:27 52.18861 -39.24166 36533 ft 540 kts 73°
2026-04-26 01:28 52.21639 -39.12771 36540 ft 541 kts 73°
2026-04-26 01:28 52.24390 -39.01433 36543 ft 540 kts 73°
2026-04-26 01:29 52.27142 -38.90026 36542 ft 539 kts 74°
2026-04-26 01:29 52.29878 -38.78623 36550 ft 540 kts 74°
2026-04-26 01:30 52.32610 -38.67183 36554 ft 541 kts 74°
2026-04-26 01:30 52.35156 -38.56465 36555 ft 541 kts 74°
2026-04-26 01:31 52.37873 -38.44970 36565 ft 541 kts 74°
2026-04-26 01:31 52.40555 -38.33557 36564 ft 540 kts 74°
2026-04-26 01:32 52.43245 -38.22054 36565 ft 540 kts 74°
2026-04-26 01:32 52.45921 -38.10544 36575 ft 540 kts 74°
2026-04-26 01:33 52.48584 -37.99031 36568 ft 540 kts 74°
2026-04-26 01:33 52.51239 -37.87493 36581 ft 540 kts 75°
2026-04-26 01:34 52.53880 -37.75949 36583 ft 539 kts 75°
2026-04-26 01:34 52.56507 -37.64403 36583 ft 539 kts 75°
2026-04-26 01:35 52.59122 -37.52852 36598 ft 538 kts 75°
2026-04-26 01:35 52.61725 -37.41283 36589 ft 540 kts 75°
2026-04-26 01:36 52.64324 -37.29671 36599 ft 541 kts 75°
2026-04-26 01:37 52.68192 -37.12269 36613 ft 541 kts 75°
2026-04-26 01:37 52.70768 -37.00600 36626 ft 541 kts 75°
2026-04-26 01:38 52.73331 -36.88919 36630 ft 542 kts 75°
2026-04-26 01:38 52.75892 -36.77190 36645 ft 543 kts 75°
2026-04-26 01:39 52.78425 -36.65516 36642 ft 542 kts 75°
2026-04-26 01:39 52.80959 -36.53771 36641 ft 542 kts 75°
2026-04-26 01:40 52.83484 -36.42002 36655 ft 544 kts 75°
2026-04-26 01:40 52.86002 -36.30199 36659 ft 545 kts 75°
2026-04-26 01:41 52.88509 -36.18375 36672 ft 544 kts 75°
2026-04-26 01:41 52.91001 -36.06557 36676 ft 543 kts 75°
2026-04-26 01:42 52.93476 -35.94746 36673 ft 543 kts 75°
2026-04-26 01:42 52.95927 -35.82980 36685 ft 542 kts 75°
2026-04-26 01:43 52.98378 -35.71148 36685 ft 542 kts 75°
2026-04-26 01:43 53.00815 -35.59314 36702 ft 542 kts 75°
2026-04-26 01:44 53.03247 -35.47429 36716 ft 543 kts 75°
2026-04-26 01:44 53.05656 -35.35587 36722 ft 545 kts 75°
2026-04-26 01:45 53.08075 -35.23628 36730 ft 546 kts 75°
2026-04-26 01:45 53.10486 -35.11634 36739 ft 547 kts 75°
2026-04-26 01:46 53.12892 -34.99588 36745 ft 547 kts 75°
2026-04-26 01:46 53.15265 -34.87637 36748 ft 546 kts 75°
2026-04-26 01:47 53.17636 -34.75620 36742 ft 545 kts 75°
2026-04-26 01:47 53.19989 -34.63622 36756 ft 544 kts 75°
2026-04-26 01:48 53.22337 -34.51570 36775 ft 546 kts 75°
2026-04-26 01:48 53.24674 -34.39503 36778 ft 547 kts 75°
2026-04-26 01:49 53.27006 -34.27388 36783 ft 547 kts 75°
2026-04-26 01:49 53.29302 -34.15380 36791 ft 546 kts 75°
2026-04-26 01:50 53.31605 -34.03260 36789 ft 547 kts 75°
2026-04-26 01:50 53.33896 -33.91119 36807 ft 547 kts 75°
2026-04-26 01:51 53.36177 -33.78960 36808 ft 548 kts 75°
2026-04-26 01:51 53.38452 -33.66751 36811 ft 549 kts 75°
2026-04-26 01:52 53.40718 -33.54511 36827 ft 551 kts 75°
2026-04-26 01:52 53.42975 -33.42240 36825 ft 550 kts 75°
2026-04-26 01:53 53.45214 -33.29986 36832 ft 548 kts 76°
2026-04-26 01:53 53.47418 -33.17839 36840 ft 547 kts 76°
2026-04-26 01:54 53.49619 -33.05633 36846 ft 546 kts 76°
2026-04-26 01:54 53.51809 -32.93402 36845 ft 547 kts 76°
2026-04-26 01:55 53.53990 -32.81139 36846 ft 548 kts 76°
2026-04-26 01:55 53.56164 -32.68831 36862 ft 549 kts 76°
2026-04-26 01:56 53.57965 -32.58575 36866 ft 551 kts 76°
2026-04-26 01:56 53.60127 -32.46181 36879 ft 552 kts 76°
2026-04-26 01:57 53.62626 -32.31748 36892 ft 551 kts 76°
2026-04-26 01:57 53.64408 -32.21376 36873 ft 549 kts 76°
2026-04-26 01:58 53.66505 -32.09106 36884 ft 547 kts 76°
2026-04-26 01:58 53.68597 -31.96770 36888 ft 547 kts 76°
2026-04-26 01:59 53.70676 -31.84428 36884 ft 546 kts 76°
2026-04-26 01:59 53.72743 -31.72065 36897 ft 547 kts 76°
2026-04-26 02:00 53.74793 -31.59723 36901 ft 549 kts 76°
2026-04-26 02:00 53.76846 -31.47267 36913 ft 551 kts 76°
2026-04-26 02:01 53.78896 -31.34745 36930 ft 553 kts 76°
2026-04-26 02:01 53.80938 -31.22170 36920 ft 554 kts 76°
2026-04-26 02:02 53.82962 -31.09625 36937 ft 551 kts 76°
2026-04-26 02:02 53.84964 -30.97110 36937 ft 550 kts 76°
2026-04-26 02:03 53.86953 -30.84590 36945 ft 550 kts 76°
2026-04-26 02:03 53.88930 -30.72053 36957 ft 551 kts 76°
2026-04-26 02:04 53.90894 -30.59502 36960 ft 550 kts 76°
2026-04-26 02:04 53.92828 -30.47047 36966 ft 549 kts 76°
2026-04-26 02:05 53.94757 -30.34530 36974 ft 548 kts 76°
2026-04-26 02:05 53.96673 -30.22002 36975 ft 547 kts 76°
2026-04-26 02:06 53.98568 -30.09515 36981 ft 544 kts 76°
2026-04-26 02:06 54.00694 -29.97221 37023 ft 542 kts 66°
2026-04-26 02:07 54.03684 -29.85397 36998 ft 545 kts 67°
2026-04-26 02:07 54.06661 -29.73514 37007 ft 547 kts 68°
2026-04-26 02:08 54.09639 -29.61554 37011 ft 549 kts 67°
2026-04-26 02:08 54.12593 -29.49646 37016 ft 549 kts 68°
2026-04-26 02:09 54.15548 -29.37646 37021 ft 548 kts 68°
2026-04-26 02:09 54.18492 -29.25644 37014 ft 547 kts 68°
2026-04-26 02:10 54.21424 -29.13613 37020 ft 549 kts 68°
2026-04-26 02:10 54.24352 -29.01543 37027 ft 550 kts 68°
2026-04-26 02:11 54.27271 -28.89433 37029 ft 551 kts 68°
2026-04-26 02:11 54.30182 -28.77296 37035 ft 551 kts 68°
2026-04-26 02:12 54.33060 -28.65223 37032 ft 551 kts 68°
2026-04-26 02:12 54.35944 -28.53059 37033 ft 551 kts 68°
2026-04-26 02:13 54.38816 -28.40880 37036 ft 550 kts 68°
2026-04-26 02:13 54.41674 -28.28687 37034 ft 550 kts 68°
2026-04-26 02:14 54.44519 -28.16483 37040 ft 550 kts 68°
2026-04-26 02:14 54.47352 -28.04260 37040 ft 550 kts 69°
2026-04-26 02:15 54.50169 -27.92033 37034 ft 550 kts 69°
2026-04-26 02:15 54.52959 -27.79857 37044 ft 550 kts 68°
2026-04-26 02:16 54.55752 -27.67595 37042 ft 550 kts 69°
2026-04-26 02:16 54.58536 -27.55303 37043 ft 551 kts 69°
2026-04-26 02:17 54.61313 -27.42971 37049 ft 551 kts 69°
2026-04-26 02:17 54.64077 -27.30622 37057 ft 551 kts 69°
2026-04-26 02:18 54.66806 -27.18359 37053 ft 550 kts 69°
2026-04-26 02:18 54.69537 -27.06012 37051 ft 549 kts 69°
2026-04-26 02:19 54.72250 -26.93672 37051 ft 549 kts 69°
2026-04-26 02:19 54.74951 -26.81316 37061 ft 548 kts 69°
2026-04-26 02:20 54.77632 -26.68977 37048 ft 547 kts 69°
2026-04-26 02:20 54.80298 -26.56630 37043 ft 547 kts 69°
2026-04-26 02:21 54.82958 -26.44242 37050 ft 548 kts 69°
2026-04-26 02:21 54.85610 -26.31815 37061 ft 549 kts 69°
2026-04-26 02:22 54.88250 -26.19365 37060 ft 550 kts 69°
2026-04-26 02:22 54.90865 -26.06955 37056 ft 551 kts 69°
2026-04-26 02:23 54.93487 -25.94442 37050 ft 551 kts 70°
2026-04-26 02:23 54.96096 -25.81906 37074 ft 551 kts 70°
2026-04-26 02:24 54.98695 -25.69347 37060 ft 551 kts 70°
2026-04-26 02:24 55.01284 -25.56753 37067 ft 552 kts 70°
2026-04-26 02:25 55.03858 -25.44151 37069 ft 552 kts 70°
2026-04-26 02:25 55.06421 -25.31527 37062 ft 553 kts 70°
2026-04-26 02:26 55.08972 -25.18878 37061 ft 552 kts 70°
2026-04-26 02:26 55.11507 -25.06228 37051 ft 551 kts 70°
2026-04-26 02:27 55.14024 -24.93588 37056 ft 551 kts 70°
2026-04-26 02:27 55.16513 -24.81007 37064 ft 550 kts 70°
2026-04-26 02:28 55.18999 -24.68358 37055 ft 549 kts 70°
2026-04-26 02:28 55.21473 -24.55687 37056 ft 549 kts 70°
2026-04-26 02:29 55.23927 -24.43039 37054 ft 548 kts 71°
2026-04-26 02:29 55.26371 -24.30360 37059 ft 550 kts 70°
2026-04-26 02:30 55.28811 -24.17615 37062 ft 551 kts 71°
2026-04-26 02:30 55.31222 -24.04936 37061 ft 551 kts 71°
2026-04-26 02:31 55.33640 -23.92137 37059 ft 552 kts 71°
2026-04-26 02:31 55.36046 -23.79315 37060 ft 553 kts 71°
2026-04-26 02:32 55.38441 -23.66466 37060 ft 553 kts 71°
2026-04-26 02:32 55.40827 -23.53571 37063 ft 554 kts 71°
2026-04-26 02:33 55.43199 -23.40666 37064 ft 554 kts 71°
2026-04-26 02:33 55.45552 -23.27778 37062 ft 552 kts 71°
2026-04-26 02:34 55.47888 -23.14887 37055 ft 551 kts 71°
2026-04-26 02:34 55.50206 -23.02015 37050 ft 550 kts 71°
2026-04-26 02:35 55.52507 -22.89142 37041 ft 549 kts 72°
2026-04-26 02:35 55.54795 -22.76251 37043 ft 551 kts 72°
2026-04-26 02:36 55.57063 -22.63383 37047 ft 553 kts 72°
2026-04-26 02:36 55.59339 -22.50372 37057 ft 555 kts 72°
2026-04-26 02:37 55.61608 -22.37313 37055 ft 555 kts 72°
2026-04-26 02:37 55.63861 -22.24247 37049 ft 554 kts 72°
2026-04-26 02:38 55.66096 -22.11194 37042 ft 554 kts 72°
2026-04-26 02:38 55.68318 -21.98119 37041 ft 553 kts 72°
2026-04-26 02:39 55.70508 -21.85140 37045 ft 553 kts 72°
2026-04-26 02:39 55.72696 -21.72071 37057 ft 552 kts 73°
2026-04-26 02:40 55.74868 -21.59003 37045 ft 552 kts 73°
2026-04-26 02:40 55.77024 -21.45933 37038 ft 551 kts 73°
2026-04-26 02:41 55.79165 -21.32856 37037 ft 551 kts 73°
2026-04-26 02:41 55.81297 -21.19735 37044 ft 553 kts 73°
2026-04-26 02:42 55.83418 -21.06579 37039 ft 554 kts 73°
2026-04-26 02:42 55.85532 -20.93363 37044 ft 555 kts 73°
2026-04-26 02:43 55.88668 -20.73569 37056 ft 556 kts 74°
2026-04-26 02:43 55.90751 -20.60292 37048 ft 555 kts 74°
2026-04-26 02:44 55.92813 -20.47040 37045 ft 554 kts 74°
2026-04-26 02:44 55.94860 -20.33783 37038 ft 553 kts 74°
2026-04-26 02:45 55.96547 -20.22777 37031 ft 553 kts 74°
2026-04-26 02:45 55.98894 -20.07344 37044 ft 554 kts 75°
2026-04-26 02:46 56.00138 -19.93835 37071 ft 551 kts 89°
2026-04-26 02:46 56.00345 -19.82427 37050 ft 553 kts 89°
2026-04-26 02:47 56.00595 -19.68669 37056 ft 555 kts 89°
2026-04-26 02:47 56.00835 -19.54880 37058 ft 553 kts 89°
2026-04-26 02:48 56.01051 -19.41160 37060 ft 552 kts 89°
2026-04-26 02:48 56.01258 -19.27469 37054 ft 551 kts 90°
2026-04-26 02:49 56.01445 -19.13786 37051 ft 551 kts 90°
2026-04-26 02:49 56.01620 -19.00095 37058 ft 551 kts 90°
2026-04-26 02:50 56.01777 -18.86499 37059 ft 550 kts 90°
2026-04-26 02:50 56.01921 -18.72801 37058 ft 549 kts 90°
2026-04-26 02:51 56.02049 -18.59153 37053 ft 549 kts 90°
2026-04-26 02:51 56.02161 -18.45592 37053 ft 549 kts 91°
2026-04-26 02:52 56.02259 -18.31934 37058 ft 549 kts 91°
2026-04-26 02:52 56.02342 -18.18266 37070 ft 549 kts 91°
2026-04-26 02:53 56.02410 -18.04592 37075 ft 551 kts 91°
2026-04-26 02:53 56.02463 -17.90892 37079 ft 552 kts 91°
2026-04-26 02:54 56.02501 -17.77143 37079 ft 553 kts 91°
2026-04-26 02:54 56.02524 -17.63426 37080 ft 551 kts 92°
2026-04-26 02:55 56.02531 -17.49734 37083 ft 550 kts 92°
2026-04-26 02:55 56.02523 -17.36160 37077 ft 548 kts 92°
2026-04-26 02:56 56.02501 -17.22539 37084 ft 548 kts 92°
2026-04-26 02:56 56.02462 -17.08917 37082 ft 547 kts 92°
2026-04-26 02:57 56.02410 -16.95280 37081 ft 548 kts 92°
2026-04-26 02:57 56.02342 -16.81743 37083 ft 549 kts 92°
2026-04-26 02:58 56.02259 -16.68082 37093 ft 549 kts 93°
2026-04-26 02:58 56.02161 -16.54415 37098 ft 550 kts 93°
2026-04-26 02:59 56.02048 -16.40748 37106 ft 550 kts 93°
2026-04-26 02:59 56.01920 -16.27083 37104 ft 549 kts 94°
2026-04-26 03:00 56.01776 -16.13428 37103 ft 549 kts 94°
2026-04-26 03:00 56.01618 -15.99764 37111 ft 549 kts 94°
2026-04-26 03:01 56.01446 -15.86238 37111 ft 547 kts 94°
2026-04-26 03:01 56.01259 -15.72669 37107 ft 545 kts 94°
2026-04-26 03:02 56.01057 -15.59120 37114 ft 546 kts 94°
2026-04-26 03:02 56.00840 -15.45546 37111 ft 546 kts 94°
2026-04-26 03:03 56.00608 -15.31968 37122 ft 545 kts 95°
2026-04-26 03:03 56.00363 -15.18535 37129 ft 545 kts 95°
2026-04-26 03:04 56.00105 -15.05163 37125 ft 544 kts 95°
2026-04-26 03:04 56.00060 -14.91593 37129 ft 544 kts 92°
2026-04-26 03:05 56.00056 -14.78065 37135 ft 545 kts 92°
2026-04-26 03:05 56.00103 -14.64506 37144 ft 545 kts 92°
2026-04-26 03:06 56.00099 -14.50971 37147 ft 545 kts 92°
2026-04-26 03:06 56.00098 -14.37420 37121 ft 545 kts 92°
2026-04-26 03:07 56.00075 -14.23893 37139 ft 543 kts 93°
2026-04-26 03:07 56.00040 -14.10427 37140 ft 541 kts 93°
2026-04-26 03:08 56.00061 -13.96983 37150 ft 541 kts 90°
2026-04-26 03:08 56.00254 -13.83535 37158 ft 542 kts 91°
2026-04-26 03:09 56.00447 -13.70138 37158 ft 544 kts 91°
2026-04-26 03:09 56.00631 -13.56632 37164 ft 543 kts 91°
2026-04-26 03:10 56.00788 -13.43155 37164 ft 543 kts 91°
2026-04-26 03:10 56.00943 -13.29673 37171 ft 542 kts 91°
2026-04-26 03:11 56.01072 -13.16212 37174 ft 542 kts 91°
2026-04-26 03:11 56.01195 -13.02766 37166 ft 541 kts 92°
2026-04-26 03:12 56.01297 -12.89326 37165 ft 540 kts 92°
2026-04-26 03:12 56.01388 -12.75900 37166 ft 540 kts 92°
2026-04-26 03:13 56.01462 -12.62476 37166 ft 540 kts 92°
2026-04-26 03:13 56.01523 -12.49042 37173 ft 540 kts 92°
2026-04-26 03:14 56.01568 -12.35675 37178 ft 542 kts 92°
2026-04-26 03:14 56.01600 -12.22192 37196 ft 543 kts 92°
2026-04-26 03:15 56.01617 -12.08660 37191 ft 544 kts 92°
2026-04-26 03:15 56.01620 -11.95165 37190 ft 542 kts 93°
2026-04-26 03:16 56.01607 -11.81698 37190 ft 540 kts 93°
2026-04-26 03:16 56.01580 -11.68271 37194 ft 539 kts 93°
2026-04-26 03:17 56.01538 -11.54926 37188 ft 541 kts 93°
2026-04-26 03:17 56.01482 -11.41448 37186 ft 543 kts 93°
2026-04-26 03:18 56.01410 -11.27951 37191 ft 543 kts 93°
2026-04-26 03:18 56.01324 -11.14457 37191 ft 542 kts 94°
2026-04-26 03:19 56.01224 -11.00993 37191 ft 541 kts 94°
2026-04-26 03:19 56.01109 -10.87556 37194 ft 540 kts 94°
2026-04-26 03:20 56.00979 -10.74137 37191 ft 539 kts 94°
2026-04-26 03:20 56.00836 -10.60717 37194 ft 540 kts 94°
2026-04-26 03:21 56.00677 -10.47305 37200 ft 540 kts 94°
2026-04-26 03:21 56.00504 -10.33886 37211 ft 540 kts 94°
2026-04-26 03:22 56.00317 -10.20550 37203 ft 540 kts 94°
2026-04-26 03:22 56.00115 -10.07126 37198 ft 540 kts 94°
2026-04-26 03:23 55.99326 -9.93895 37219 ft 534 kts 104°
2026-04-26 03:23 55.97846 -9.80873 37221 ft 535 kts 104°
2026-04-26 03:24 55.96367 -9.67841 37218 ft 536 kts 104°
2026-04-26 03:24 55.94866 -9.54806 37214 ft 535 kts 104°
2026-04-26 03:25 55.93358 -9.41818 37218 ft 534 kts 104°
2026-04-26 03:25 55.91848 -9.28944 37215 ft 533 kts 105°
2026-04-26 03:26 55.90316 -9.16015 37216 ft 533 kts 105°
2026-04-26 03:26 55.88785 -9.03207 37213 ft 532 kts 105°
2026-04-26 03:27 55.87229 -8.90323 37214 ft 533 kts 105°
2026-04-26 03:27 55.85656 -8.77418 37214 ft 533 kts 105°
2026-04-26 03:28 55.84069 -8.64514 37217 ft 534 kts 105°
2026-04-26 03:28 55.82467 -8.51611 37223 ft 534 kts 105°
2026-04-26 03:29 55.80850 -8.38708 37218 ft 534 kts 105°
2026-04-26 03:29 55.79219 -8.25810 37168 ft 536 kts 105°
2026-04-26 03:30 55.78392 -8.19318 36763 ft 540 kts 105°
2026-04-26 03:30 55.77564 -8.12839 36379 ft 534 kts 105°
2026-04-26 03:30 55.76745 -8.06447 35992 ft 528 kts 106°
2026-04-26 03:30 55.75930 -8.00136 35608 ft 521 kts 106°
2026-04-26 03:31 55.75118 -7.93887 35141 ft 517 kts 106°
2026-04-26 03:31 55.74311 -7.87693 34668 ft 513 kts 106°
2026-04-26 03:31 55.73509 -7.81546 34200 ft 510 kts 106°
2026-04-26 03:31 55.72719 -7.75526 33694 ft 506 kts 106°
2026-04-26 03:32 55.71919 -7.69462 33169 ft 503 kts 106°
2026-04-26 03:32 55.71117 -7.63410 32672 ft 503 kts 107°
2026-04-26 03:32 55.70309 -7.57340 32197 ft 507 kts 107°
2026-04-26 03:32 55.69492 -7.51227 31748 ft 511 kts 107°
2026-04-26 03:33 55.68672 -7.45097 31284 ft 510 kts 107°
2026-04-26 03:33 55.67852 -7.38998 30836 ft 507 kts 107°
2026-04-26 03:33 55.67034 -7.32948 30391 ft 503 kts 107°
2026-04-26 03:33 55.66218 -7.26940 29868 ft 499 kts 107°
2026-04-26 03:34 55.65407 -7.20988 29334 ft 495 kts 107°
2026-04-26 03:34 55.64601 -7.15092 28822 ft 491 kts 107°
2026-04-26 03:34 55.63800 -7.09253 28308 ft 486 kts 107°
2026-04-26 03:34 55.63001 -7.03465 27800 ft 482 kts 107°
2026-04-26 03:35 55.62476 -6.99666 27476 ft 479 kts 107°
2026-04-26 03:35 55.61428 -6.92122 26824 ft 473 kts 107°
2026-04-26 03:35 55.60644 -6.86492 26338 ft 469 kts 107°
2026-04-26 03:35 55.59864 -6.80922 25876 ft 464 kts 107°
2026-04-26 03:36 55.59090 -6.75412 25396 ft 460 kts 107°
2026-04-26 03:36 55.58320 -6.69949 24928 ft 456 kts 107°
2026-04-26 03:36 55.57555 -6.64536 24474 ft 452 kts 107°
2026-04-26 03:36 55.57050 -6.60976 24186 ft 449 kts 107°
2026-04-26 03:37 55.56292 -6.55645 23712 ft 445 kts 107°
2026-04-26 03:37 55.55539 -6.50370 23203 ft 441 kts 107°
2026-04-26 03:37 55.54789 -6.45136 22689 ft 438 kts 107°
2026-04-26 03:37 55.54044 -6.39951 22180 ft 434 kts 107°
2026-04-26 03:38 55.53303 -6.34810 21681 ft 430 kts 107°
2026-04-26 03:38 55.52566 -6.29715 21195 ft 427 kts 107°
2026-04-26 03:38 55.51834 -6.24668 20821 ft 422 kts 107°
2026-04-26 03:38 55.51105 -6.19665 20454 ft 420 kts 107°
2026-04-26 03:39 55.50375 -6.14671 20083 ft 420 kts 107°
2026-04-26 03:39 55.49647 -6.09696 19723 ft 419 kts 107°
2026-04-26 03:39 55.48918 -6.04731 19357 ft 418 kts 107°
2026-04-26 03:39 55.48188 -5.99778 19015 ft 417 kts 108°
2026-04-26 03:40 55.47457 -5.94840 18664 ft 415 kts 108°
2026-04-26 03:40 55.46729 -5.89933 18284 ft 413 kts 108°
2026-04-26 03:40 55.46004 -5.85058 17876 ft 410 kts 108°
2026-04-26 03:40 55.45282 -5.80214 17485 ft 407 kts 108°
2026-04-26 03:41 55.44561 -5.75399 17092 ft 405 kts 108°
2026-04-26 03:41 55.43843 -5.70621 16698 ft 402 kts 108°
2026-04-26 03:41 55.43139 -5.65940 16327 ft 400 kts 107°
2026-04-26 03:41 55.42549 -5.61173 15981 ft 394 kts 105°
2026-04-26 03:42 55.41919 -5.56539 15650 ft 386 kts 107°
2026-04-26 03:42 55.41272 -5.51997 15311 ft 379 kts 106°
2026-04-26 03:42 55.40795 -5.47482 14971 ft 375 kts 92°
2026-04-26 03:42 55.41166 -5.42983 14685 ft 370 kts 70°
2026-04-26 03:43 55.42176 -5.38870 14391 ft 363 kts 66°
2026-04-26 03:43 55.43233 -5.34867 14063 ft 358 kts 66°
2026-04-26 03:43 55.44245 -5.30896 13703 ft 353 kts 68°
2026-04-26 03:43 55.45211 -5.26961 13334 ft 348 kts 68°
2026-04-26 03:44 55.46171 -5.23081 12976 ft 343 kts 68°
2026-04-26 03:44 55.47131 -5.19255 12613 ft 339 kts 68°
2026-04-26 03:44 55.48075 -5.15480 12265 ft 334 kts 68°
2026-04-26 03:44 55.49000 -5.11753 11945 ft 329 kts 68°
2026-04-26 03:45 55.49863 -5.08271 11741 ft 321 kts 68°
2026-04-26 03:45 55.50746 -5.04710 11508 ft 313 kts 68°
2026-04-26 03:45 55.51605 -5.01239 11276 ft 305 kts 68°
2026-04-26 03:45 55.52442 -4.97846 11026 ft 299 kts 68°
2026-04-26 03:46 55.53267 -4.94499 10787 ft 295 kts 68°
2026-04-26 03:46 55.54083 -4.91185 10570 ft 293 kts 68°
2026-04-26 03:46 55.54894 -4.87889 10357 ft 292 kts 68°
2026-04-26 03:47 55.56495 -4.81361 9921 ft 290 kts 68°
2026-04-26 03:47 55.57293 -4.78098 9722 ft 289 kts 68°
2026-04-26 03:47 55.58089 -4.74841 9538 ft 288 kts 68°
2026-04-26 03:47 55.58882 -4.71594 9345 ft 287 kts 68°
2026-04-26 03:48 55.59673 -4.68346 9176 ft 286 kts 68°
2026-04-26 03:48 55.60461 -4.65109 8986 ft 285 kts 68°
2026-04-26 03:48 55.61242 -4.61893 8803 ft 284 kts 68°
2026-04-26 03:48 55.62010 -4.58728 8624 ft 283 kts 68°
2026-04-26 03:49 55.62785 -4.55529 8448 ft 282 kts 68°
2026-04-26 03:49 55.63556 -4.52344 8265 ft 281 kts 68°
2026-04-26 03:49 55.64324 -4.49164 8095 ft 280 kts 68°
2026-04-26 03:49 55.65088 -4.45990 7910 ft 279 kts 68°
2026-04-26 03:50 55.65849 -4.42832 7734 ft 279 kts 68°
2026-04-26 03:50 55.66608 -4.39677 7563 ft 277 kts 67°
2026-04-26 03:50 55.67361 -4.36541 7389 ft 277 kts 68°
2026-04-26 03:50 55.68115 -4.33395 7214 ft 277 kts 67°
2026-04-26 03:51 55.68864 -4.30268 7047 ft 275 kts 67°
2026-04-26 03:51 55.69608 -4.27157 6874 ft 274 kts 68°
2026-04-26 03:51 55.70353 -4.24034 6704 ft 275 kts 68°
2026-04-26 03:51 55.71094 -4.20926 6525 ft 272 kts 68°
2026-04-26 03:52 55.71827 -4.17848 6345 ft 270 kts 67°
2026-04-26 03:52 55.72549 -4.14812 6164 ft 269 kts 67°
2026-04-26 03:52 55.73274 -4.11758 5990 ft 268 kts 67°
2026-04-26 03:52 55.73994 -4.08720 5804 ft 264 kts 67°
2026-04-26 03:53 55.74684 -4.05806 5705 ft 249 kts 67°
2026-04-26 03:53 55.75347 -4.03000 5562 ft 245 kts 67°
2026-04-26 03:53 55.76001 -4.00229 5411 ft 243 kts 67°
2026-04-26 03:53 55.76654 -3.97461 5251 ft 243 kts 67°
2026-04-26 03:54 55.77305 -3.94697 5090 ft 242 kts 67°
2026-04-26 03:54 55.77952 -3.91946 4930 ft 242 kts 67°
2026-04-26 03:54 55.78602 -3.89176 4766 ft 243 kts 67°
2026-04-26 03:54 55.79250 -3.86415 4622 ft 242 kts 68°
2026-04-26 03:55 55.79897 -3.83657 4467 ft 241 kts 68°
2026-04-26 03:55 55.80538 -3.80917 4321 ft 240 kts 68°
2026-04-26 03:55 55.81177 -3.78183 4168 ft 239 kts 68°
2026-04-26 03:55 55.81918 -3.75550 3990 ft 237 kts 56°
2026-04-26 03:56 55.82778 -3.73175 3829 ft 226 kts 60°
2026-04-26 03:56 55.83551 -3.70808 3649 ft 217 kts 60°
2026-04-26 03:56 55.84325 -3.68520 3450 ft 213 kts 59°
2026-04-26 03:56 55.85088 -3.66309 3245 ft 207 kts 59°
2026-04-26 03:57 55.85829 -3.64157 3053 ft 197 kts 60°
2026-04-26 03:57 55.86553 -3.62081 2692 ft 203 kts 59°
2026-04-26 03:57 55.87338 -3.59870 2519 ft 207 kts 59°
2026-04-26 03:57 55.88071 -3.57740 2364 ft 199 kts 60°
2026-04-26 03:58 55.88768 -3.55680 2157 ft 190 kts 60°
2026-04-26 03:58 55.89441 -3.53705 1873 ft 183 kts 60°
2026-04-26 03:58 55.90081 -3.51826 1589 ft 173 kts 60°
2026-04-26 03:58 55.90691 -3.50034 1361 ft 166 kts 59°
2026-04-26 03:59 55.91280 -3.48279 1180 ft 166 kts 60°
2026-04-26 03:59 55.91883 -3.46499 1025 ft 169 kts 59°
2026-04-26 03:59 55.92491 -3.44705 837 ft 168 kts 59°
2026-04-26 03:59 55.93090 -3.42931 661 ft 166 kts 59°
2026-04-26 04:00 55.93677 -3.41182 457 ft 166 kts 59°
2026-04-26 04:00 55.94273 -3.39404 240 ft 168 kts 59°
2026-04-26 04:00 55.94865 -3.37652 116 ft 158 kts 59°
2026-04-26 04:00 55.95327 -3.36266 115 ft 100 kts 58°
2026-04-26 04:01 55.95565 -3.35562 114 ft 34 kts 74°
2026-04-26 04:01 55.95547 -3.35455 116 ft 4 kts 163°
2026-04-26 04:01 55.95476 -3.35416 120 ft 13 kts 168°
2026-04-26 04:01 55.95419 -3.35457 118 ft 8 kts 222°
2026-04-26 04:02 55.95390 -3.35527 118 ft 7 kts 238°
2026-04-26 04:02 55.95368 -3.35593 120 ft 6 kts 239°
2026-04-26 04:02 55.95347 -3.35655 117 ft 6 kts 239°
2026-04-26 04:02 55.95327 -3.35713 118 ft 5 kts 239°
2026-04-26 04:03 55.95309 -3.35766 118 ft 5 kts 239°
2026-04-26 04:03 55.95284 -3.35842 116 ft 12 kts 239°
2026-04-26 04:03 55.95228 -3.35972 116 ft 10 kts 204°
2026-04-26 04:03 55.95167 -3.35950 120 ft 11 kts 149°
2026-04-26 04:04 55.95105 -3.35832 117 ft 13 kts 128°
2026-04-26 04:04 55.95058 -3.35819 119 ft 3 kts 232°
2026-04-26 04:04 55.95054 -3.35842 119 ft 1 kts 258°
2026-04-26 04:04 55.95052 -3.35887 118 ft 4 kts 265°
2026-04-26 04:05 55.95050 -3.35921 119 ft 4 kts 260°
2026-04-26 04:05 55.95034 -3.36006 118 ft 9 kts 249°
2026-04-26 04:05 55.95029 -3.36032 117 ft 0 kts 249°
2026-04-26 04:05 55.95023 -3.36056 116 ft 0 kts 248°